Regional Weather Roundup
Issued by NWS Sioux Falls, SD

Home | Current Version | Previous Version | Graphics & Text | Print | Product List | Glossary On
Versions: 1 2 3 4 5 6 7 8 9 10 11 12 13 14 15 16 17 18 19 20 21 22 23 24 25 26 27 28 29 30 31 32 33 34 35 36 37 38 39 40 41 42 43 44 45 46 47 48 49 50
000
ASUS43 KFSD 261602
RWRFSD

WEATHER ROUNDUP FOR SE SOUTH DAKOTA/SW MINNESOTA/NW IOWA
NATIONAL WEATHER SERVICE SIOUX FALLS SD
1000 AM CST MON JAN 26 2015

NOTE: "FAIR" INDICATES FEW OR NO CLOUDS BELOW 12,000 FEET WITH NO
SIGNIFICANT WEATHER AND OR OBSTRUCTIONS TO VISIBILITY.


SDZ038>040-050-052>070-261700-
SOUTHEAST SOUTH DAKOTA

CITY           SKY/WX    TMP DP  RH WIND       PRES   REMARKS
CHAMBERLAIN    NOT AVBL
HURON          SUNNY     41  35  79 NW15      29.89R
MADISON        FAIR      36  36 100 NW16G22   29.84R
MITCHELL       MOSUNNY   42  36  79 W13       29.91R
SIOUX FALLS    MOSUNNY   40  35  83 NW13G21   29.85R
WINNER         FAIR      49  34  56 W16       29.98R
YANKTON        MOSUNNY   43  36  75 NW17      29.90S
$$

MNZ071-072-080-081-089-090-097-098-261700-
SOUTHWEST MINNESOTA

CITY           SKY/WX    TMP DP  RH WIND       PRES   REMARKS
FAIRMONT       SUNNY     39  30  70 NW15      29.75R
JACKSON        SUNNY     37  32  81 NW15      29.77R
LUVERNE        SUNNY     37  34  87 NW12      29.84R
MARSHALL       SUNNY     37  30  75 NW16      29.80R
MONTEVIDEO     SUNNY     39  39 100 N14G20    29.78R
PIPESTONE      SUNNY     37  34  87 NW13G18   29.82R
REDWOOD FALLS  SUNNY     40  33  76 W14       29.76R
TRACY          SUNNY     40  33  78 NW16      29.78R
WINDOM         SUNNY     39  34  81 NW16G22   29.77R
WORTHINGTON    SUNNY     37  30  75 NW17      29.80R
$$

IAZ001>003-012>014-020>022-031-032-NEZ013-014-SDZ071-261700-
NORTHWEST IOWA

CITY           SKY/WX    TMP DP  RH WIND       PRES   REMARKS
ESTHERVILLE    SUNNY     36  32  85 NW16      29.77R
SIOUX CITY     SUNNY     43  36  76 NW16      29.87R
SPENCER        MOSUNNY   40  33  76 NW14      29.80R
$$

ABBREVIATIONS USED IN REMARKS
   TC - TEMPERATURE IN CELSIUS
  WCI - WIND CHILL INDEX
   HX - HEAT INDEX
  VSB - VISIBILITY




USA.gov is the U.S. government's official web portal to all federal, state and local government web resources and services.